Location: Avenches
(46.8809°N, 7.0410°E)
Time: 12:57:40
(UTC+00:00)

X-37B - Pass Details

Date: 15 March 2021
Orbit: 380 x 394 km, 45.0° (Epoch: 07 April)

Event Time Altitude Azimuth Distance (km) Brightness Sun altitude
Rises 18:34:10 0° 245° (WSW) 2,264 5.5 -10.5°
Reaches altitude 10° 18:36:16 10° 239° (WSW) 1,414 4.2 -10.8°
Maximum altitude 18:39:19 44° 165° (SSE) 549 1.1 -11.3°
Enters shadow 18:41:11 20° 101° (E) 970 1.9 -11.6°
